Regional Weather Roundup
Issued by NWS Wakefield, VA

Home | Current Version | Previous Version | Text Only | Print | Product List | Glossary Off
Versions: 1 2 3 4 5 6 7 8 9 10 11 12 13 14 15 16 17 18 19 20 21 22 23 24 25 26 27

000
ASUS41 KAKQ 221815
RWRAKQ

REGIONAL WEATHER ROUNDUP
NATIONAL WEATHER SERVICE WAKEFIELD VA
100 PM EST MON JAN 22 2018

Note: "fair" indicates few or no clouds below 12,000 feet with no
significant weather and/or obstructions to visibility. * = Denotes
station may not report precipitation (e.g., rain,snow,etc.),
thunder or fog.

VAZ042-051-052>054-056-221900-
NORTHERN VIRGINIA

CITY           SKY/WX    TMP DP  RH WIND       PRES   REMARKS
WASH NATIONAL  CLOUDY    60  43  53 S9        30.08F
DULLES         PTSUNNY   63  44  50 S10       30.07F
FORT BELVOIR   FAIR      63  42  47 S9        30.08F
QUANTICO       CLOUDY    53  42  66 SW8       30.09F
FREDERICKSBRG* FAIR      67  44  43 SW15      30.08F
STAFFORD*      FAIR      67  42  40 SW12      30.12F
WARRENTON      FAIR      65  38  38 SW12      30.07F
CULPEPER*      FAIR      64  41  42 S6        30.08F
MANASSAS*      FAIR      64  44  48 S9        30.07F
LEESBURG*      FAIR      61  46  59 S9        30.07F
WINCHESTER     FAIR      61  43  51 CALM      30.04F
FRONT ROYAL*   FAIR      66  43  42 SE5       30.02F
LURAY*         FAIR      64  43  45 SW8       30.03F
$$

VAZ048-049-060>072-079>083-221900-
CENTRAL AND SOUTH CENTRAL VIRGINIA

CITY           SKY/WX    TMP DP  RH WIND       PRES   REMARKS
RICHMOND       CLOUDY    62  43  49 S13       30.13F
CHESTERFIELD*  NOT AVBL
PETERSBURG*    FAIR      63  43  48 S6        30.13F
HANOVER        FAIR      65  43  44 S13       30.13F
TAPPAHANNOCK*  FAIR      64  44  48 S8        30.13F
QUINTON*       FAIR      62  43  50 S12G17    30.13F
CHARLOTTSVILLE FAIR      65  41  41 S13       30.07F
GORDONSVILLE*  FAIR      62  44  51 SW8       30.08F
ORANGE*        FAIR      63  41  45 SW9G23    30.09F
LOUISA*        FAIR      63  42  45 SW7       30.13F
BUMPASS*       FAIR      64  40  41 S8G20     30.10F
FARMVILLE*     FAIR      66  44  45 S9        30.09F
CREWE*         FAIR      64  45  48 S3        30.11F
FORT PICKETT*  FAIR      64  44  48 SW9G18    30.12F
CHASE CITY*    FAIR      62  43  49 S3        30.13F
CLARKSVILLE*   FAIR      61  43  51 SW8       30.13F
SOUTH HILL*    FAIR      63  45  51 S12       30.19F
LAWRENCEVILLE* FAIR      64  42  45 S6        30.13F
EMPORIA*       FAIR      63  43  48 S5        30.16F
$$

VAZ088>098-221900-
SOUTHEAST VIRGINIA

CITY           SKY/WX    TMP DP  RH WIND       PRES   REMARKS
NORFOLK        FAIR      67  43  41 SW10      30.15F
VIRGINIA BEACH PTSUNNY   66  41  40 S9        30.15F
NORFOLK NAVAL  PTSUNNY   67  44  43 S6        30.16F
WEST POINT*    FAIR      62  42  47 SE6       30.16F
SALUDA*        FAIR      63  45  51 S6G16     30.14F
NEWPORT NEWS   FAIR      63  45  51 S8        30.15F
LANGLEY AFB    CLOUDY    64  46  51 S7        30.15F
FORT EUSTIS    FAIR      62  46  55 S7        30.12F
WILLIAMSBURG*  FAIR      64  46  52 CALM      30.15F
HR EXEC AP*    FAIR      67  44  43 S9        30.16F
FRANKLIN*      FAIR      62  44  51 S7        30.16F
US460-WAKEFLD  FAIR      63  45  51 SW6       30.14F
$$

VAZ020-022-025-037-045-221900-
WEST CENTRAL AND SOUTHWEST VIRGINIA

CITY           SKY/WX    TMP DP  RH WIND       PRES   REMARKS
STAUNTON*      FAIR      63  40  43 SW12G18   30.08F
WAYNESBORO*    FAIR      64  40  41 S10G16    30.07F
HOT SPRINGS VA FAIR      51  37  56 S12G18    30.09F
LYNCHBURG      FAIR      60  42  51 SW10      30.10F
DANVILLE       FAIR      60  43  53 SW7       30.12F
SOUTH BOSTON*  FAIR      62  41  46 S7        30.12F
MARTINSVILLE   FAIR      59  41  49 SW7       30.14F
ROANOKE        PTSUNNY   57  42  57 CALM      30.10F
BLACKSBURG     FAIR      59  42  53 S7        30.10F
DUBLIN*        FAIR      55  43  64 CALM      30.09F
MARION*        FAIR      60  36  40 E3        30.07F
HILLSVILLE*    FAIR      54  40  60 S9G16     30.07F
RICHLANDS*     FAIR      60  38  43 S12G23    30.01F
WISE*          FAIR      61  41  48 S16G24    29.99F
ABINGDON*      FAIR      66  41  39 W14       30.01F
$$

MDZ021>025-VAZ099-100-221900-
SOUTHERN MARYLAND AND THE DELMARVA PENINSULA

CITY           SKY/WX    TMP DP  RH WIND       PRES   REMARKS
PATUXENT RIVER PTSUNNY   64  43  46 S6        30.11F
BAY BRIDGE APT FAIR      46  37  71 NW3       30.10F
LEONARDTOWN    FAIR      63  43  48 SW12      30.12F
DOVER          FAIR      66  48  50 SW7       30.10F
GEORGETOWN     FAIR      66  42  41 SW14G25   30.12F
EASTON         PTSUNNY   64  41  42 SW10      30.14F
CAMBRIDGE      SUNNY     61  43  51 S7        30.12F
SALISBURY      FAIR      64  43  46 SW10      30.13F
OCEAN CITY     FAIR      53  41  63 S8        30.14F
WALLOPS ISLAND CLOUDY    63  44  50 S10       30.15F
ACCOMACK*      FAIR      65  45  49 S8        30.15F
$$

NCZ012>017-030>032-221900-
NORTH CENTRAL AND EASTERN NORTH CAROLINA

CITY           SKY/WX    TMP DP  RH WIND       PRES   REMARKS
ROANOKE RAPIDS FAIR      63  45  51 CALM      30.15F
RALEIGH        CLOUDY    62  42  47 S10       30.15F
ELIZABETH CITY FAIR      62  53  72 S8        30.18F
AHOSKIE*       FAIR      62  43  49 S6        30.16F
EDENTON*       FAIR      63  45  51 S3        30.18F
CURRITUCK*     FAIR      63  44  50 S5        30.18F
KILL DEVIL HLS FAIR      61  42  50 CALM      30.18F
MANTEO         FAIR      58  42  53 S5        30.20F
CAPE HATTERAS  NOT AVBL
TARBORO*       NOT AVBL
GOLDSBORO      FAIR      63  48  58 S9        30.15F
WASHINGTON     FAIR      63  43  49 SE3       30.18F
GREENVILLE     FAIR      64  43  45 S7        30.18F
NEW BERN       FAIR      62  44  51 E8        30.18F
WILMINGTON     PTSUNNY   64  48  56 SE3       30.18F
$$

VAZ048-221900-
ELSEWHERE

CITY           SKY/WX    TMP DP  RH WIND       PRES   REMARKS
HARRISBURG PA  CLOUDY    50  42  74 E3        30.07F
BALTIMORE      PTSUNNY   61  44  53 S3        30.08F
ANNAPOLIS      FAIR      45  39  79 E6        30.09F
ANDREWS AFB    FAIR      64  42  44 SW12      30.07F
PHILADELPHIA   CLOUDY    57  40  52 S3        30.11F
HENDERSON NC   FAIR      59  41  52 SW5       30.14F
GREENSBORO     CLOUDY    59  43  55 SW10      30.13F
ROCKY MOUNT    FAIR      62  42  47 S7        30.16F
$$

VAZ100-221900-
MARINE

STATION/POSITION TIME  TEMP    WIND        PRES    WAVE   SWELL
                       AIR SEA DIR/SP/G            HT/PER HT/PER
                 (UTC) (F)     (DEG/KT/KT) (MB)    (FT/S) (FT/S)
BRANDYWINE LGT   1742   48     180/ 15/ 16 1020.0F
CAPE MAY NJ      1748   54 35  170/ 11/ 14 1019.4F
LEWES DE         1748   65 35  240/  9/ 15 1019.6F
15NM E FENWICK I 1750   44 38  180/ 12/ 14 1021.3F   2/ 3   2/10
OCEAN-CITY-INLET 1748   42 37  220/ 10/ 11 1021.1F
WACHAPREAGUE VA  1748   49 39  200/  6/  8 1021.2F
THOMAS POINT MD  1800   46 34  180/  8/  8   N/A
COVE POINT MD    1748   45     170/ 13/ 16 1020.4F
SOLOMONS ISLAND  1748   60 35  210/ 13/ 15 1019.4F
BISHOPS HEAD MD  1748   39 40  150/ 11/ 12 1020.7F
PINEY POINT MD   1748          160/  3/  4   N/A
CAMBRIDGE MD     1748   60 34              1020.5F
LEWISETTA VA     1748   62 38  230/ 13/ 16 1020.0F
RAPPAHANNOCK LGT 1748          170/ 15/ 15 1021.6F
YORK RVR RNG VA  1748   58     220/ 10/ 10 1021.5F
YORKTOWN VA      1748   62 36  200/  8/  9 1020.6F
DOMINION TERM VA 1748   58      CALM  /  1 1021.3F
KIPTOPEKE VA     1748      36  170/  4/  4   N/A
CAPE HENRY VA    1748   55     140/ 10/ 12   N/A
WILLOUBY STN VA  1748          260/  4/  4 1021.1F
S CRANEY ISL VA  1748   55      30/  1/  3 1021.1F
CAPE HENRY BUOY  1800      41                N/A     1/10
CAPE CHARLES BUO 1751      40                N/A     1/11
64NM E OF VA BCH 1750   57 60  220/  6/  8 1022.9F   1/10   2/10
DUCK PIER NC     1748   56 40  170/  4/  5 1021.7F
44100 DUCK FRF   1745      40                N/A     1/10
44056 DUCK FRF   1800      43                N/A     1/11
OREGON INLET NC  1736   53 43  140/  3/  5 1022.8F
HATTERAS NC      1748   53 49   20/  5/  5 1022.5F
DIAMOND SHLS NC  1750   65     220/  4/  6   N/A     1/ 9   2/ 9
CAPE LOOKOUT NC  1800           40/  5/  6 1022.3F
$$




USA.gov is the U.S. government's official web portal to all federal, state and local government web resources and services.